Location: Montreal
(45.5000°N, 73.5833°W)
Time: 20:06:03
(UTC-05:00)

Vanguard 1 - Pass Details

Date: 26 October 2017
Orbit: 650 x 3834 km, 34.2° (Epoch: 17 November)

Event Time Altitude Azimuth Distance (km) Brightness Sun altitude
Rises 07:58:46 0° 275° (W) 7,431 13.9 4.6°
Reaches altitude 10° 08:07:48 10° 255° (WSW) 6,799 13.9 6.0°
Maximum altitude 08:17:00 14° 231° (SW) 6,578 14.1 7.5°
Drops below altitude 10° 08:26:18 10° 207° (SSW) 6,798 14.4 8.9°
Sets 08:35:39 0° 186° (S) 7,409 14.9 10.3°
